Location: Eymir
(36.7333°N, 29.7833°E)
Time: 18:24:32
(UTC+00:00)

Timation 2 Rocket - Pass Details

Date: 14 January 2026
Orbit: 907 x 1072 km, 70.0° (Epoch: 17 February)

Event Time Altitude Azimuth Distance (km) Brightness Sun altitude
Rises 04:29:30 0° 224° (SW) 3,807 6.9 -8.8°
Reaches altitude 10° 04:32:19 10° 231° (SW) 2,838 6.1 -8.3°
Maximum altitude 04:38:30 40° 299° (WNW) 1,453 4.5 -7.1°
Drops below altitude 10° 04:44:30 10° 8° (N) 2,745 6.2 -6.0°
Sets 04:47:12 0° 16° (NNE) 3,670 7.0 -5.5°
